| time (UTC) | temp F | wind direction | speed MPH | gust MPH | rain 1hr in | rain 24hr in | rain mn in | humidity % | barometer mb |
| 20260508151605 | 53 | 129 | 2.0 | 7.0 | 0.00 | 0.00 | 0.00 | 60 | 1019.9 |
| 20260508151053 | 52 | 41 | 1.0 | 7.0 | 0.00 | 0.00 | 0.00 | 61 | 1019.9 |
| 20260508150551 | 51 | 41 | 1.0 | 4.0 | 0.00 | 0.00 | 0.00 | 63 | 1019.9 |
| 20260508150057 | 50 | 0 | 1.0 | 4.0 | 0.00 | 0.00 | 0.00 | 63 | 1019.9 |
| 20260508145556 | 50 | 48 | 1.0 | 5.0 | 0.00 | 0.00 | 0.00 | 65 | 1019.9 |
| 20260508145055 | 49 | 55 | 1.0 | 5.0 | 0.00 | 0.00 | 0.00 | 66 | 1019.9 |
| 20260508144601 | 49 | 244 | 2.0 | 5.0 | 0.00 | 0.00 | 0.00 | 67 | 1020.0 |
| 20260508144052 | 48 | 61 | 1.0 | 4.0 | 0.00 | 0.00 | 0.00 | 68 | 1020.0 |
| 20260508143552 | 48 | 0 | 1.0 | 4.0 | 0.00 | 0.00 | 0.00 | 67 | 1020.0 |
| 20260508143101 | 47 | 61 | 2.0 | 5.0 | 0.00 | 0.00 | 0.00 | 67 | 1019.9 |
| 20260508142551 | 47 | 38 | 2.0 | 5.0 | 0.00 | 0.00 | 0.00 | 68 | 1019.9 |
| 20260508142054 | 46 | 61 | 1.0 | 4.0 | 0.00 | 0.00 | 0.00 | 68 | 1019.9 |
| 20260508141554 | 45 | 57 | 1.0 | 4.0 | 0.00 | 0.00 | 0.00 | 68 | 1019.8 |
| 20260508141052 | 45 | 24 | 1.0 | 4.0 | 0.00 | 0.00 | 0.00 | 69 | 1019.8 |
| 20260508140551 | 44 | 51 | 1.0 | 4.0 | 0.00 | 0.00 | 0.00 | 70 | 1019.9 |
| 20260508140110 | 43 | 239 | 1.0 | 3.0 | 0.00 | 0.00 | 0.00 | 72 | 1019.7 |
| 20260508135552 | 42 | 93 | 1.0 | 4.0 | 0.00 | 0.00 | 0.00 | 73 | 1019.8 |
| 20260508135052 | 42 | 43 | 0.0 | 5.0 | 0.00 | 0.00 | 0.00 | 74 | 1019.7 |
| 20260508134558 | 41 | 0 | 2.0 | 5.0 | 0.00 | 0.00 | 0.00 | 74 | 1019.8 |
| 20260508134054 | 41 | 68 | 1.0 | 4.0 | 0.00 | 0.00 | 0.00 | 75 | 1019.7 |
| 20260508133554 | 40 | 41 | 1.0 | 3.0 | 0.00 | 0.00 | 0.00 | 78 | 1019.6 |
| 20260508133058 | 39 | 68 | 1.0 | 4.0 | 0.00 | 0.00 | 0.00 | 79 | 1019.7 |
| 20260508132554 | 39 | 72 | 1.0 | 4.0 | 0.00 | 0.00 | 0.00 | 81 | 1019.6 |
| 20260508132051 | 38 | 234 | 1.0 | 3.0 | 0.00 | 0.00 | 0.00 | 80 | 1019.6 |
| 20260508131559 | 37 | 257 | 1.0 | 3.0 | 0.00 | 0.00 | 0.00 | 79 | 1019.5 |
| 20260508131055 | 37 | 0 | 1.0 | 3.0 | 0.00 | 0.00 | 0.00 | 80 | 1019.6 |
| 20260508130558 | 37 | 0 | 0.0 | 3.0 | 0.00 | 0.00 | 0.00 | 81 | 1019.5 |
| 20260508130110 | 36 | 0 | 1.0 | 5.0 | 0.00 | 0.00 | 0.00 | 82 | 1019.4 |
| 20260508125555 | 36 | 61 | 1.0 | 5.0 | 0.00 | 0.00 | 0.00 | 81 | 1019.4 |
| 20260508125056 | 36 | 61 | 1.0 | 2.0 | 0.00 | 0.00 | 0.00 | 81 | 1019.3 |
| 20260508124556 | 36 | 265 | 0.0 | 2.0 | 0.00 | 0.00 | 0.00 | 80 | 1019.2 |
| 20260508124055 | 36 | 126 | 0.0 | 2.0 | 0.00 | 0.00 | 0.00 | 80 | 1019.2 |
| 20260508123556 | 36 | 265 | 1.0 | 4.0 | 0.00 | 0.00 | 0.00 | 79 | 1019.1 |
| 20260508123101 | 36 | 0 | 0.0 | 4.0 | 0.00 | 0.00 | 0.00 | 79 | 1019.2 |
| 20260508122554 | 36 | 48 | 1.0 | 3.0 | 0.00 | 0.00 | 0.00 | 80 | 1019.2 |
| 20260508122051 | 36 | 251 | 2.0 | 3.0 | 0.00 | 0.00 | 0.00 | 80 | 1019.2 |
| 20260508121624 | 36 | 292 | 1.0 | 2.0 | 0.00 | 0.00 | 0.00 | 80 | 1019.1 |
| 20260508121051 | 36 | 9 | 0.0 | 2.0 | 0.00 | 0.00 | 0.00 | 79 | 1019.1 |
| 20260508120554 | 36 | 298 | 1.0 | 2.0 | 0.00 | 0.00 | 0.00 | 79 | 1019.0 |
| 20260508120055 | 36 | 205 | 1.0 | 4.0 | 0.00 | 0.00 | 0.00 | 79 | 1019.0 |
| 20260508115555 | 37 | 0 | 1.0 | 4.0 | 0.00 | 0.00 | 0.00 | 78 | 1019.1 |
| 20260508115052 | 37 | 173 | 0.0 | 3.0 | 0.00 | 0.00 | 0.00 | 77 | 1019.0 |
| 20260508114554 | 37 | 265 | 0.0 | 3.0 | 0.00 | 0.00 | 0.00 | 77 | 1019.0 |
| 20260508114053 | 38 | 34 | 1.0 | 5.0 | 0.00 | 0.00 | 0.00 | 77 | 1019.1 |
| 20260508113557 | 38 | 218 | 1.0 | 5.0 | 0.00 | 0.00 | 0.00 | 77 | 1018.9 |
| 20260508113051 | 38 | 336 | 2.0 | 5.0 | 0.00 | 0.00 | 0.00 | 76 | 1018.8 |
| 20260508112554 | 38 | 229 | 1.0 | 3.0 | 0.00 | 0.00 | 0.00 | 76 | 1019.0 |
| 20260508112051 | 38 | 255 | 1.0 | 4.0 | 0.00 | 0.00 | 0.00 | 76 | 1019.0 |
| 20260508111609 | 38 | 170 | 1.0 | 4.0 | 0.00 | 0.00 | 0.00 | 77 | 1018.9 |
| 20260508111054 | 38 | 279 | 2.0 | 4.0 | 0.00 | 0.00 | 0.00 | 77 | 1019.0 |
| 20260508110555 | 38 | 257 | 1.0 | 4.0 | 0.00 | 0.00 | 0.00 | 77 | 1019.2 |
| 20260508110057 | 38 | 265 | 2.0 | 3.0 | 0.00 | 0.00 | 0.00 | 77 | 1019.0 |
| 20260508105552 | 37 | 273 | 1.0 | 3.0 | 0.00 | 0.00 | 0.00 | 78 | 1019.1 |
| 20260508105055 | 37 | 309 | 1.0 | 2.0 | 0.00 | 0.00 | 0.00 | 78 | 1019.0 |
| 20260508104600 | 37 | 280 | 1.0 | 4.0 | 0.00 | 0.00 | 0.00 | 77 | 1018.8 |
| 20260508104054 | 37 | 221 | 1.0 | 4.0 | 0.00 | 0.00 | 0.00 | 78 | 1018.8 |
| 20260508103556 | 37 | 254 | 1.0 | 4.0 | 0.00 | 0.00 | 0.00 | 77 | 1018.8 |
| 20260508103057 | 37 | 265 | 1.0 | 3.0 | 0.00 | 0.00 | 0.00 | 77 | 1018.9 |
| 20260508102554 | 37 | 221 | 0.0 | 3.0 | 0.00 | 0.00 | 0.00 | 77 | 1018.7 |
| 20260508102053 | 38 | 250 | 0.0 | 3.0 | 0.00 | 0.00 | 0.00 | 76 | 1018.7 |
| 20260508101553 | 38 | 51 | 0.0 | 5.0 | 0.00 | 0.00 | 0.00 | 76 | 1018.8 |
| 20260508101052 | 38 | 0 | 1.0 | 5.0 | 0.00 | 0.00 | 0.00 | 77 | 1018.8 |
| 20260508100555 | 37 | 321 | 2.0 | 5.0 | 0.00 | 0.00 | 0.00 | 77 | 1018.7 |
| 20260508100054 | 37 | 282 | 2.0 | 4.0 | 0.00 | 0.00 | 0.00 | 78 | 1018.7 |
| 20260508095553 | 37 | 272 | 2.0 | 4.0 | 0.00 | 0.00 | 0.00 | 78 | 1018.6 |
| 20260508095053 | 37 | 196 | 1.0 | 4.0 | 0.00 | 0.00 | 0.00 | 78 | 1018.6 |
| 20260508094552 | 37 | 247 | 1.0 | 4.0 | 0.00 | 0.00 | 0.00 | 77 | 1018.6 |
| 20260508094055 | 37 | 243 | 1.0 | 5.0 | 0.00 | 0.00 | 0.00 | 77 | 1018.6 |
| 20260508093555 | 38 | 0 | 1.0 | 5.0 | 0.00 | 0.00 | 0.00 | 76 | 1018.6 |
| 20260508093057 | 38 | 164 | 1.0 | 4.0 | 0.00 | 0.00 | 0.00 | 74 | 1018.5 |
| 20260508092555 | 39 | 19 | 1.0 | 4.0 | 0.00 | 0.00 | 0.00 | 74 | 1018.6 |
| 20260508092055 | 39 | 22 | 1.0 | 3.0 | 0.00 | 0.00 | 0.00 | 73 | 1018.6 |
| 20260508091604 | 39 | 286 | 1.0 | 3.0 | 0.00 | 0.00 | 0.00 | 72 | 1018.5 |
| 20260508091052 | 40 | 0 | 1.0 | 3.0 | 0.00 | 0.00 | 0.00 | 72 | 1018.6 |
| 20260508090554 | 40 | 255 | 0.0 | 3.0 | 0.00 | 0.00 | 0.00 | 71 | 1018.6 |
| 20260508090110 | 40 | 309 | 1.0 | 4.0 | 0.00 | 0.00 | 0.00 | 71 | 1018.5 |
| 20260508085554 | 41 | 74 | 1.0 | 4.0 | 0.00 | 0.00 | 0.00 | 70 | 1018.6 |
| 20260508085054 | 40 | 272 | 2.0 | 4.0 | 0.00 | 0.00 | 0.00 | 71 | 1018.6 |
| 20260508084552 | 40 | 272 | 2.0 | 4.0 | 0.00 | 0.00 | 0.00 | 71 | 1018.6 |
| 20260508084055 | 40 | 265 | 2.0 | 4.0 | 0.00 | 0.00 | 0.00 | 72 | 1018.7 |
| 20260508083557 | 40 | 250 | 1.0 | 4.0 | 0.00 | 0.00 | 0.00 | 72 | 1018.8 |
| 20260508083053 | 40 | 265 | 2.0 | 4.0 | 0.00 | 0.00 | 0.00 | 71 | 1018.8 |
| 20260508082552 | 40 | 265 | 1.0 | 3.0 | 0.00 | 0.00 | 0.00 | 71 | 1018.9 |
| 20260508082051 | 40 | 257 | 1.0 | 4.0 | 0.00 | 0.00 | 0.00 | 71 | 1018.8 |
| 20260508081607 | 40 | 265 | 1.0 | 4.0 | 0.00 | 0.00 | 0.00 | 72 | 1018.9 |
| 20260508081054 | 40 | 282 | 1.0 | 4.0 | 0.00 | 0.00 | 0.00 | 72 | 1018.9 |
| 20260508080555 | 40 | 243 | 2.0 | 4.0 | 0.00 | 0.00 | 0.00 | 72 | 1018.9 |
| 20260508075555 | 40 | 265 | 2.0 | 3.0 | 0.00 | 0.00 | 0.00 | 72 | 1018.8 |
| 20260508075054 | 40 | 221 | 1.0 | 3.0 | 0.00 | 0.00 | 0.00 | 72 | 1018.8 |
| 20260508074553 | 40 | 250 | 1.0 | 3.0 | 0.00 | 0.00 | 0.00 | 72 | 1018.9 |
| 20260508074055 | 40 | 259 | 1.0 | 3.0 | 0.00 | 0.00 | 0.00 | 71 | 1019.0 |
| 20260508073555 | 40 | 265 | 0.0 | 2.0 | 0.00 | 0.00 | 0.00 | 70 | 1018.8 |
| 20260508073105 | 41 | 265 | 1.0 | 2.0 | 0.00 | 0.00 | 0.00 | 69 | 1018.8 |
| 20260508072554 | 41 | 212 | 0.0 | 2.0 | 0.00 | 0.00 | 0.00 | 69 | 1018.9 |
| 20260508072054 | 42 | 0 | 0.0 | 3.0 | 0.00 | 0.00 | 0.00 | 68 | 1018.9 |
| 20260508071612 | 42 | 0 | 1.0 | 3.0 | 0.00 | 0.00 | 0.00 | 68 | 1018.9 |
| 20260508071052 | 42 | 325 | 0.0 | 3.0 | 0.00 | 0.00 | 0.00 | 67 | 1018.8 |
| 20260508070555 | 42 | 239 | 1.0 | 3.0 | 0.00 | 0.00 | 0.00 | 67 | 1018.7 |
| 20260508065555 | 43 | 9 | 2.0 | 4.0 | 0.00 | 0.00 | 0.00 | 65 | 1018.6 |
| 20260508065052 | 43 | 265 | 1.0 | 4.0 | 0.00 | 0.00 | 0.00 | 65 | 1018.8 |
| 20260508064607 | 43 | 282 | 2.0 | 4.0 | 0.00 | 0.00 | 0.00 | 65 | 1018.8 |
| 20260508064057 | 43 | 265 | 2.0 | 4.0 | 0.00 | 0.00 | 0.00 | 65 | 1018.7 |
| 20260508063553 | 43 | 309 | 2.0 | 4.0 | 0.00 | 0.00 | 0.00 | 64 | 1018.6 |
| 20260508063059 | 44 | 215 | 2.0 | 4.0 | 0.00 | 0.00 | 0.00 | 64 | 1018.7 |
| 20260508062552 | 44 | 0 | 2.0 | 4.0 | 0.00 | 0.00 | 0.00 | 63 | 1018.6 |
| 20260508062054 | 44 | 250 | 1.0 | 4.0 | 0.00 | 0.00 | 0.00 | 63 | 1018.6 |
| 20260508061556 | 44 | 303 | 2.0 | 4.0 | 0.00 | 0.00 | 0.00 | 63 | 1018.5 |
| 20260508061054 | 44 | 265 | 2.0 | 7.0 | 0.00 | 0.00 | 0.00 | 63 | 1018.6 |
| 20260508060555 | 44 | 296 | 1.0 | 7.0 | 0.00 | 0.00 | 0.00 | 62 | 1018.5 |
| 20260508060055 | 44 | 46 | 3.0 | 7.0 | 0.00 | 0.00 | 0.00 | 62 | 1018.4 |
| 20260508055555 | 44 | 251 | 2.0 | 7.0 | 0.00 | 0.00 | 0.00 | 63 | 1018.5 |
| 20260508055055 | 45 | 248 | 2.0 | 4.0 | 0.00 | 0.00 | 0.00 | 62 | 1018.5 |
| 20260508054608 | 45 | 249 | 2.0 | 3.0 | 0.00 | 0.00 | 0.00 | 62 | 1018.5 |
| 20260508054054 | 45 | 265 | 1.0 | 3.0 | 0.00 | 0.00 | 0.00 | 61 | 1018.4 |
| 20260508053554 | 45 | 190 | 1.0 | 4.0 | 0.00 | 0.00 | 0.00 | 60 | 1018.4 |
| 20260508053104 | 45 | 243 | 2.0 | 6.0 | 0.00 | 0.00 | 0.00 | 60 | 1018.4 |
| 20260508052553 | 46 | 272 | 3.0 | 6.0 | 0.00 | 0.00 | 0.00 | 59 | 1018.3 |
| 20260508052053 | 46 | 250 | 1.0 | 4.0 | 0.00 | 0.00 | 0.00 | 59 | 1018.3 |
| 20260508051557 | 46 | 257 | 2.0 | 4.0 | 0.00 | 0.00 | 0.00 | 59 | 1018.2 |
| 20260508051052 | 46 | 285 | 2.0 | 4.0 | 0.00 | 0.00 | 0.00 | 58 | 1018.4 |
| 20260508050553 | 47 | 254 | 2.0 | 4.0 | 0.00 | 0.00 | 0.00 | 57 | 1018.5 |
| 20260508050056 | 47 | 265 | 2.0 | 6.0 | 0.00 | 0.00 | 0.00 | 56 | 1018.5 |
| 20260508045552 | 47 | 292 | 1.0 | 6.0 | 0.00 | 0.00 | 0.00 | 56 | 1018.5 |
| 20260508045055 | 48 | 275 | 2.0 | 5.0 | 0.00 | 0.00 | 0.00 | 55 | 1018.4 |
| 20260508044559 | 48 | 265 | 1.0 | 6.0 | 0.00 | 0.00 | 0.00 | 54 | 1018.5 |
| 20260508044054 | 49 | 259 | 3.0 | 6.0 | 0.00 | 0.00 | 0.00 | 54 | 1018.5 |
| 20260508043554 | 49 | 292 | 0.0 | 4.0 | 0.00 | 0.00 | 0.00 | 54 | 1018.6 |
| 20260508043052 | 49 | 76 | 1.0 | 8.0 | 0.00 | 0.00 | 0.00 | 52 | 1018.6 |
| 20260508042553 | 50 | 221 | 3.0 | 8.0 | 0.00 | 0.00 | 0.00 | 52 | 1018.5 |
| 20260508042052 | 50 | 279 | 5.0 | 7.0 | 0.00 | 0.00 | 0.00 | 51 | 1018.4 |
| 20260508041554 | 50 | 265 | 4.0 | 7.0 | 0.00 | 0.00 | 0.00 | 51 | 1018.5 |
| 20260508041051 | 50 | 292 | 3.0 | 7.0 | 0.00 | 0.00 | 0.00 | 51 | 1018.5 |
| 20260508040552 | 50 | 279 | 3.0 | 7.0 | 0.00 | 0.00 | 0.00 | 51 | 1018.5 |
| 20260508040058 | 50 | 277 | 2.0 | 6.0 | 0.00 | 0.00 | 0.00 | 50 | 1018.4 |
| 20260508035551 | 50 | 271 | 3.0 | 7.0 | 0.00 | 0.00 | 0.00 | 50 | 1018.4 |
| 20260508035052 | 50 | 268 | 3.0 | 7.0 | 0.00 | 0.00 | 0.00 | 50 | 1018.3 |
| 20260508034606 | 51 | 282 | 2.0 | 4.0 | 0.00 | 0.00 | 0.00 | 50 | 1018.4 |
| 20260508034051 | 51 | 254 | 1.0 | 7.0 | 0.00 | 0.00 | 0.00 | 49 | 1018.3 |
| 20260508033551 | 52 | 265 | 1.0 | 8.0 | 0.00 | 0.00 | 0.00 | 48 | 1018.2 |
| 20260508033113 | 52 | 279 | 4.0 | 8.0 | 0.00 | 0.00 | 0.00 | 46 | 1018.1 |
| 20260508032552 | 52 | 275 | 4.0 | 8.0 | 0.00 | 0.00 | 0.00 | 46 | 1017.9 |
| 20260508032055 | 52 | 294 | 3.0 | 8.0 | 0.00 | 0.00 | 0.00 | 46 | 1018.0 |
| 20260508031554 | 52 | 248 | 4.0 | 8.0 | 0.00 | 0.00 | 0.00 | 46 | 1018.0 |
| 20260508031052 | 52 | 292 | 5.0 | 8.0 | 0.00 | 0.00 | 0.00 | 46 | 1017.9 |
| 20260508030551 | 53 | 296 | 4.0 | 8.0 | 0.00 | 0.00 | 0.00 | 46 | 1017.9 |
| 20260508030109 | 53 | 268 | 4.0 | 8.0 | 0.00 | 0.00 | 0.00 | 46 | 1017.9 |
| 20260508025551 | 53 | 269 | 4.0 | 8.0 | 0.00 | 0.00 | 0.00 | 46 | 1017.9 |
| 20260508025052 | 53 | 277 | 4.0 | 8.0 | 0.00 | 0.00 | 0.00 | 46 | 1017.9 |
| 20260508024620 | 54 | 259 | 4.0 | 8.0 | 0.00 | 0.00 | 0.00 | 44 | 1017.9 |
| 20260508024052 | 54 | 265 | 4.0 | 7.0 | 0.00 | 0.00 | 0.00 | 45 | 1017.8 |
| 20260508023552 | 55 | 277 | 3.0 | 7.0 | 0.00 | 0.00 | 0.00 | 45 | 1017.8 |
| 20260508023052 | 55 | 259 | 4.0 | 7.0 | 0.00 | 0.00 | 0.00 | 44 | 1017.7 |
| 20260508022552 | 56 | 286 | 4.0 | 7.0 | 0.00 | 0.00 | 0.00 | 43 | 1017.8 |
| 20260508022052 | 56 | 280 | 3.0 | 7.0 | 0.00 | 0.00 | 0.00 | 42 | 1017.7 |
| 20260508021600 | 56 | 290 | 3.0 | 7.0 | 0.00 | 0.00 | 0.00 | 41 | 1017.8 |
| 20260508021050 | 57 | 247 | 3.0 | 6.0 | 0.00 | 0.00 | 0.00 | 41 | 1017.6 |
| 20260508020551 | 57 | 272 | 2.0 | 7.0 | 0.00 | 0.00 | 0.00 | 40 | 1017.7 |
| 20260508020110 | 58 | 301 | 3.0 | 7.0 | 0.00 | 0.00 | 0.00 | 41 | 1017.6 |
| 20260508015551 | 59 | 250 | 2.0 | 6.0 | 0.00 | 0.00 | 0.00 | 38 | 1017.7 |
| 20260508015053 | 59 | 286 | 2.0 | 6.0 | 0.00 | 0.00 | 0.00 | 37 | 1017.6 |
| 20260508014606 | 60 | 282 | 1.0 | 3.0 | 0.00 | 0.00 | 0.00 | 39 | 1017.6 |
| 20260508014051 | 60 | 55 | 1.0 | 7.0 | 0.00 | 0.00 | 0.00 | 36 | 1017.7 |
| 20260508013551 | 60 | 301 | 2.0 | 9.0 | 0.00 | 0.00 | 0.00 | 35 | 1017.8 |
| 20260508013107 | 61 | 16 | 2.0 | 10.0 | 0.00 | 0.00 | 0.00 | 33 | 1017.6 |
| 20260508012555 | 61 | 212 | 4.0 | 12.0 | 0.00 | 0.00 | 0.00 | 34 | 1017.7 |
| 20260508012055 | 61 | 15 | 4.0 | 19.0 | 0.00 | 0.00 | 0.00 | 33 | 1017.6 |
| 20260508011600 | 61 | 243 | 8.0 | 19.0 | 0.00 | 0.00 | 0.00 | 32 | 1017.5 |
| 20260508011057 | 62 | 282 | 4.0 | 9.0 | 0.00 | 0.00 | 0.00 | 32 | 1017.5 |
| 20260508010555 | 62 | 307 | 1.0 | 9.0 | 0.00 | 0.00 | 0.00 | 32 | 1017.5 |
| 20260508010115 | 62 | 55 | 1.0 | 11.0 | 0.00 | 0.00 | 0.00 | 33 | 1017.6 |
| 20260508005554 | 62 | 273 | 4.0 | 11.0 | 0.00 | 0.00 | 0.00 | 32 | 1017.7 |
| 20260508005055 | 62 | 28 | 4.0 | 11.0 | 0.00 | 0.00 | 0.00 | 32 | 1017.6 |
| 20260508004556 | 62 | 178 | 4.0 | 12.0 | 0.00 | 0.00 | 0.00 | 32 | 1017.6 |
| 20260508004055 | 62 | 335 | 4.0 | 12.0 | 0.00 | 0.00 | 0.00 | 31 | 1017.7 |
| 20260508003554 | 63 | 350 | 5.0 | 12.0 | 0.00 | 0.00 | 0.00 | 31 | 1017.8 |
| 20260508003056 | 63 | 331 | 3.0 | 9.0 | 0.00 | 0.00 | 0.00 | 31 | 1017.9 |
| 20260508002555 | 63 | 267 | 3.0 | 8.0 | 0.00 | 0.00 | 0.00 | 31 | 1017.7 |
| 20260508002055 | 63 | 265 | 1.0 | 9.0 | 0.00 | 0.00 | 0.00 | 32 | 1017.8 |
| 20260508001602 | 63 | 251 | 2.0 | 9.0 | 0.00 | 0.00 | 0.00 | 31 | 1017.7 |
| 20260508001055 | 63 | 59 | 2.0 | 8.0 | 0.00 | 0.00 | 0.00 | 32 | 1017.9 |
| 20260508000555 | 63 | 255 | 2.0 | 9.0 | 0.00 | 0.00 | 0.00 | 32 | 1017.9 |
| 20260507235553 | 63 | 323 | 4.0 | 13.0 | 0.00 | 0.00 | 0.00 | 33 | 1017.9 |
| 20260507235054 | 63 | 325 | 3.0 | 13.0 | 0.00 | 0.00 | 0.00 | 31 | 1018.0 |
| 20260507234559 | 63 | 25 | 3.0 | 13.0 | 0.00 | 0.00 | 0.00 | 32 | 1018.0 |
| 20260507234052 | 63 | 273 | 5.0 | 13.0 | 0.00 | 0.00 | 0.00 | 31 | 1017.9 |
| 20260507233555 | 63 | 61 | 5.0 | 13.0 | 0.00 | 0.00 | 0.00 | 31 | 1018.2 |
| 20260507233054 | 63 | 334 | 1.0 | 14.0 | 0.00 | 0.00 | 0.00 | 33 | 1018.2 |
| 20260507232554 | 63 | 27 | 6.0 | 21.0 | 0.00 | 0.00 | 0.00 | 32 | 1018.2 |
| 20260507232055 | 63 | 341 | 5.0 | 21.0 | 0.00 | 0.00 | 0.00 | 33 | 1018.3 |
| 20260507231559 | 64 | 24 | 9.0 | 21.0 | 0.00 | 0.00 | 0.00 | 31 | 1018.2 |
| 20260507231059 | 64 | 250 | 4.0 | 12.0 | 0.00 | 0.00 | 0.00 | 32 | 1018.3 |
| 20260507230556 | 63 | 41 | 4.0 | 12.0 | 0.00 | 0.00 | 0.00 | 34 | 1018.5 |
| 20260507230058 | 63 | 51 | 4.0 | 15.0 | 0.00 | 0.00 | 0.00 | 33 | 1018.5 |
| 20260507225552 | 63 | 304 | 7.0 | 15.0 | 0.00 | 0.00 | 0.00 | 33 | 1018.6 |
| 20260507225053 | 63 | 38 | 4.0 | 14.0 | 0.00 | 0.00 | 0.00 | 33 | 1018.6 |
| 20260507224558 | 63 | 292 | 4.0 | 20.0 | 0.00 | 0.00 | 0.00 | 34 | 1018.8 |
| 20260507224052 | 63 | 329 | 6.0 | 23.0 | 0.00 | 0.00 | 0.00 | 32 | 1018.7 |
| 20260507223557 | 64 | 324 | 6.0 | 23.0 | 0.00 | 0.00 | 0.00 | 33 | 1018.9 |
| 20260507223055 | 64 | 19 | 6.0 | 19.0 | 0.00 | 0.00 | 0.00 | 31 | 1018.7 |
| 20260507222558 | 64 | 344 | 5.0 | 18.0 | 0.00 | 0.00 | 0.00 | 33 | 1018.8 |
| 20260507222056 | 64 | 335 | 8.0 | 29.0 | 0.00 | 0.00 | 0.00 | 32 | 1018.8 |
| 20260507221555 | 64 | 21 | 8.0 | 29.0 | 0.00 | 0.00 | 0.00 | 34 | 1018.8 |
| 20260507221051 | 64 | 323 | 9.0 | 19.0 | 0.00 | 0.00 | 0.00 | 31 | 1018.7 |
| 20260507220552 | 64 | 329 | 6.0 | 18.0 | 0.00 | 0.00 | 0.00 | 31 | 1018.8 |
| 20260507220053 | 64 | 317 | 6.0 | 18.0 | 0.00 | 0.00 | 0.00 | 32 | 1018.8 |
| 20260507215552 | 64 | 43 | 4.0 | 18.0 | 0.00 | 0.00 | 0.00 | 35 | 1019.0 |
| 20260507215052 | 64 | 38 | 9.0 | 18.0 | 0.00 | 0.00 | 0.00 | 30 | 1018.9 |
| 20260507214557 | 64 | 241 | 8.0 | 16.0 | 0.00 | 0.00 | 0.00 | 30 | 1018.9 |
| 20260507214052 | 64 | 28 | 6.0 | 21.0 | 0.00 | 0.00 | 0.00 | 31 | 1019.0 |
| 20260507213552 | 64 | 321 | 7.0 | 22.0 | 0.00 | 0.00 | 0.00 | 31 | 1019.2 |
| 20260507213101 | 65 | 333 | 9.0 | 23.0 | 0.00 | 0.00 | 0.00 | 30 | 1019.2 |
| 20260507212553 | 66 | 240 | 9.0 | 23.0 | 0.00 | 0.00 | 0.00 | 32 | 1019.3 |
| 20260507212053 | 66 | 340 | 8.0 | 16.0 | 0.00 | 0.00 | 0.00 | 33 | 1019.4 |
| 20260507211555 | 65 | 257 | 4.0 | 16.0 | 0.00 | 0.00 | 0.00 | 32 | 1019.1 |
| 20260507211052 | 65 | 20 | 6.0 | 16.0 | 0.00 | 0.00 | 0.00 | 33 | 1019.3 |
| 20260507210552 | 65 | 331 | 3.0 | 16.0 | 0.00 | 0.00 | 0.00 | 33 | 1019.4 |
| 20260507210056 | 64 | 247 | 6.0 | 18.0 | 0.00 | 0.00 | 0.00 | 33 | 1019.4 |
| 20260507205553 | 63 | 280 | 7.0 | 18.0 | 0.00 | 0.00 | 0.00 | 34 | 1019.4 |
| 20260507205052 | 63 | 9 | 7.0 | 18.0 | 0.00 | 0.00 | 0.00 | 32 | 1019.4 |
| 20260507204602 | 64 | 312 | 8.0 | 19.0 | 0.00 | 0.00 | 0.00 | 30 | 1019.5 |
| 20260507204052 | 65 | 21 | 7.0 | 19.0 | 0.00 | 0.00 | 0.00 | 33 | 1019.5 |
| 20260507203553 | 65 | 323 | 5.0 | 19.0 | 0.00 | 0.00 | 0.00 | 30 | 1019.4 |
| 20260507203059 | 64 | 299 | 2.0 | 19.0 | 0.00 | 0.00 | 0.00 | 32 | 1019.5 |
| 20260507202552 | 64 | 263 | 7.0 | 17.0 | 0.00 | 0.00 | 0.00 | 32 | 1019.5 |
| 20260507202052 | 64 | 325 | 10.0 | 17.0 | 0.00 | 0.00 | 0.00 | 29 | 1019.6 |
| 20260507201610 | 64 | 0 | 2.0 | 16.0 | 0.00 | 0.00 | 0.00 | 32 | 1019.6 |
| 20260507201053 | 63 | 26 | 7.0 | 22.0 | 0.00 | 0.00 | 0.00 | 31 | 1019.6 |
| 20260507200553 | 64 | 324 | 4.0 | 22.0 | 0.00 | 0.00 | 0.00 | 31 | 1019.5 |
| 20260507200053 | 64 | 317 | 9.0 | 22.0 | 0.00 | 0.00 | 0.00 | 30 | 1019.6 |
| 20260507195550 | 64 | 235 | 3.0 | 22.0 | 0.00 | 0.00 | 0.00 | 29 | 1019.7 |
| 20260507195055 | 64 | 41 | 5.0 | 22.0 | 0.00 | 0.00 | 0.00 | 29 | 1019.6 |
| 20260507194603 | 64 | 244 | 6.0 | 22.0 | 0.00 | 0.00 | 0.00 | 29 | 1019.6 |
| 20260507194053 | 64 | 153 | 5.0 | 19.0 | 0.00 | 0.00 | 0.00 | 33 | 1019.6 |
| 20260507193552 | 63 | 325 | 4.0 | 19.0 | 0.00 | 0.00 | 0.00 | 31 | 1019.8 |
| 20260507193100 | 63 | 93 | 6.0 | 25.0 | 0.00 | 0.00 | 0.00 | 32 | 1019.9 |
| 20260507192552 | 62 | 268 | 6.0 | 25.0 | 0.00 | 0.00 | 0.00 | 31 | 1020.0 |
| 20260507192053 | 62 | 237 | 9.0 | 25.0 | 0.00 | 0.00 | 0.00 | 29 | 1019.8 |
| 20260507191607 | 62 | 248 | 11.0 | 23.0 | 0.00 | 0.00 | 0.00 | 30 | 1020.1 |
| 20260507191053 | 63 | 273 | 12.0 | 23.0 | 0.00 | 0.00 | 0.00 | 29 | 1019.9 |
| 20260507190552 | 63 | 182 | 8.0 | 24.0 | 0.00 | 0.00 | 0.00 | 32 | 1019.9 |
| 20260507190059 | 62 | 234 | 6.0 | 24.0 | 0.00 | 0.00 | 0.00 | 30 | 1019.9 |
| 20260507185553 | 62 | 250 | 7.0 | 14.0 | 0.00 | 0.00 | 0.00 | 30 | 1020.0 |
| 20260507185053 | 62 | 284 | 5.0 | 15.0 | 0.00 | 0.00 | 0.00 | 31 | 1020.1 |
| 20260507184553 | 63 | 261 | 7.0 | 15.0 | 0.00 | 0.00 | 0.00 | 29 | 1020.1 |
| 20260507184053 | 63 | 257 | 5.0 | 16.0 | 0.00 | 0.00 | 0.00 | 33 | 1019.9 |
| 20260507183549 | 63 | 19 | 6.0 | 20.0 | 0.00 | 0.00 | 0.00 | 31 | 1020.0 |
| 20260507183107 | 63 | 217 | 6.0 | 20.0 | 0.00 | 0.00 | 0.00 | 31 | 1020.0 |
| 20260507182554 | 63 | 275 | 6.0 | 20.0 | 0.00 | 0.00 | 0.00 | 31 | 1019.9 |
| 20260507182053 | 62 | 269 | 10.0 | 20.0 | 0.00 | 0.00 | 0.00 | 30 | 1020.0 |
| 20260507181555 | 62 | 236 | 7.0 | 22.0 | 0.00 | 0.00 | 0.00 | 31 | 1019.8 |
| 20260507181052 | 62 | 265 | 10.0 | 22.0 | 0.00 | 0.00 | 0.00 | 30 | 1020.0 |
| 20260507180553 | 61 | 265 | 7.0 | 18.0 | 0.00 | 0.00 | 0.00 | 32 | 1020.1 |
| 20260507180057 | 61 | 287 | 5.0 | 20.0 | 0.00 | 0.00 | 0.00 | 31 | 1020.2 |
| 20260507175553 | 61 | 102 | 8.0 | 20.0 | 0.00 | 0.06 | 0.00 | 32 | 1020.1 |
| 20260507175053 | 61 | 323 | 4.0 | 17.0 | 0.00 | 0.06 | 0.00 | 33 | 1020.2 |
| 20260507174556 | 60 | 65 | 6.0 | 17.0 | 0.00 | 0.06 | 0.00 | 33 | 1020.2 |
| 20260507174053 | 60 | 13 | 3.0 | 14.0 | 0.00 | 0.06 | 0.00 | 33 | 1020.1 |
| 20260507173554 | 59 | 25 | 5.0 | 14.0 | 0.00 | 0.06 | 0.00 | 35 | 1020.1 |
| 20260507173106 | 58 | 265 | 1.0 | 8.0 | 0.00 | 0.06 | 0.00 | 39 | 1020.4 |
| 20260507172557 | 58 | 22 | 3.0 | 6.0 | 0.00 | 0.06 | 0.00 | 44 | 1020.5 |
| 20260507172054 | 57 | 0 | 1.0 | 4.0 | 0.00 | 0.06 | 0.00 | 43 | 1020.4 |
| 20260507171556 | 57 | 193 | 2.0 | 6.0 | 0.00 | 0.06 | 0.00 | 43 | 1020.6 |
| 20260507171053 | 56 | 215 | 2.0 | 6.0 | 0.00 | 0.06 | 0.00 | 45 | 1020.8 |
| 20260507170553 | 55 | 265 | 2.0 | 6.0 | 0.00 | 0.06 | 0.00 | 43 | 1020.7 |
| 20260507170057 | 55 | 33 | 1.0 | 8.0 | 0.00 | 0.06 | 0.00 | 44 | 1020.7 |
| 20260507165552 | 54 | 68 | 1.0 | 8.0 | 0.00 | 0.16 | 0.00 | 45 | 1020.7 |
| 20260507165052 | 54 | 0 | 2.0 | 8.0 | 0.00 | 0.16 | 0.00 | 45 | 1020.8 |
| 20260507164556 | 53 | 20 | 1.0 | 7.0 | 0.00 | 0.16 | 0.00 | 44 | 1020.9 |
| 20260507164054 | 53 | 24 | 2.0 | 7.0 | 0.00 | 0.16 | 0.00 | 45 | 1020.8 |
| 20260507163555 | 53 | 30 | 2.0 | 6.0 | 0.00 | 0.16 | 0.00 | 48 | 1020.9 |
| 20260507163057 | 52 | 34 | 3.0 | 6.0 | 0.00 | 0.16 | 0.00 | 46 | 1020.9 |
| 20260507162550 | 52 | 126 | 2.0 | 6.0 | 0.00 | 0.16 | 0.00 | 47 | 1020.9 |
| 20260507162052 | 52 | 51 | 1.0 | 6.0 | 0.00 | 0.16 | 0.00 | 49 | 1020.9 |
| 20260507161559 | 51 | 41 | 2.0 | 6.0 | 0.00 | 0.16 | 0.00 | 47 | 1020.9 |
| 20260507161050 | 51 | 44 | 1.0 | 5.0 | 0.00 | 0.16 | 0.00 | 47 | 1021.0 |
| 20260507160554 | 51 | 42 | 2.0 | 6.0 | 0.00 | 0.16 | 0.00 | 48 | 1021.0 |
| 20260507160056 | 51 | 344 | 1.0 | 6.0 | 0.00 | 0.16 | 0.00 | 48 | 1021.1 |
| 20260507155551 | 50 | 123 | 2.0 | 6.0 | 0.00 | 0.16 | 0.00 | 48 | 1021.1 |
| 20260507155057 | 50 | 341 | 1.0 | 9.0 | 0.00 | 0.16 | 0.00 | 48 | 1021.0 |
| 20260507154557 | 50 | 13 | 1.0 | 9.0 | 0.00 | 0.16 | 0.00 | 49 | 1021.1 |
| 20260507154053 | 49 | 78 | 3.0 | 9.0 | 0.00 | 0.16 | 0.00 | 49 | 1021.1 |
| 20260507153553 | 49 | 162 | 2.0 | 9.0 | 0.00 | 0.16 | 0.00 | 50 | 1021.3 |
| 20260507153106 | 48 | 64 | 4.0 | 9.0 | 0.00 | 0.16 | 0.00 | 51 | 1021.3 |
| 20260507152553 | 48 | 144 | 2.0 | 7.0 | 0.00 | 0.16 | 0.00 | 52 | 1021.3 |
| 20260507152052 | 47 | 34 | 2.0 | 9.0 | 0.00 | 0.16 | 0.00 | 54 | 1021.3 |